[[{"header":{"parameterUnit":"m.s-1","parameterCategory":1,"la1":30.2991,"la2":30.254,"lo1":-89.0895,"lo2":-89.0444,"dy":0.0017,"dx":0.0017,"nx":28,"ny":28,"refTime":"2025-06-05T21:00:00:Z","depth":0,"parameterNumber":2,"parameterNumberName":"U-component_of_WINDS"},"data":[0,0,0,0,0,0,0,0,0,0,0,0,0,0,0,0,0,0,0,0,0,0,0,0,0,0,0,0,0,0,0,0,0,0,0,0,0,0,0,0,0,0,0,0,0,0,0,0,0,0,0,0,0,0,0,0,0,0,4.2803,4.2804,0,4.2948,4.2949,4.2951,4.2924,4.2922,4.2919,4.2917,4.3066,4.3072,4.3078,0,0,0,0,0,0,0,0,0,0,0,0,0,4.2503,4.2509,4.2802,4.2804,4.2806,4.2947,4.2949,4.2951,4.2925,4.2922,4.2919,4.2916,4.3064,4.3071,4.3079,0,0,0,0,0,0,0,0,0,0,0,0,0,4.2639,4.251,4.2802,4.281,4.2812,4.2947,4.2949,4.2952,4.2925,4.2922,4.2918,4.2914,4.3061,4.307,4.308,4.3216,0,0,4.3109,4.3113,0,0,0,0,0,0,0,0,4.2631,4.265,4.2807,4.281,4.2812,4.2914,4.2898,4.304,4.2926,4.2882,4.2917,4.2912,4.3018,4.3031,4.3067,4.3223,4.3229,4.311,4.3115,4.312,4.3122,0,0,0,0,0,0,0,4.2622,4.2644,4.286,4.2809,4.2813,4.2806,4.2821,4.2925,4.297,4.2886,4.2884,4.2902,4.3019,4.3058,4.307,4.3231,4.3109,4.3118,4.3124,4.3128,4.3506,4.351,0,0,0,0,0,0,4.261,4.2636,4.2855,4.2864,4.271,4.2815,4.2832,4.2885,4.2969,4.2978,4.2905,4.29,4.3043,4.3059,4.3075,4.3239,4.312,4.3128,4.3134,4.3502,4.3507,4.3511,0,0,0,0,0,0,4.2604,4.263,4.2849,4.275,4.2777,4.2824,4.2884,4.289,4.2929,4.2983,4.2991,4.2936,4.3041,4.3062,4.3181,4.3244,4.3133,4.3141,4.3496,4.3503,4.3509,4.3569,0,0,0,0,0,0,4.2595,4.2628,4.268,4.2751,4.2783,4.2953,4.2888,4.2896,4.2945,4.294,4.3015,4.3023,4.3039,4.3167,4.319,4.3255,4.3149,4.3491,4.3499,4.3507,4.3561,4.3576,4.3589,0,0,0,0,0,4.2585,4.2691,4.2683,4.2709,4.2849,4.2956,4.2974,4.299,4.295,4.3003,4.3038,4.3021,4.3234,4.3179,4.3206,4.3274,4.3487,4.3497,4.3506,4.3555,4.3573,4.3589,0,0,0,0,0,0,4.2626,4.2701,4.2692,4.2825,4.2884,4.2952,4.3019,4.301,4.3082,4.3074,4.3091,4.3108,4.3229,4.3264,4.3202,4.341,4.3355,4.337,4.3382,4.34,4.3414,4.3403,4.3157,0,0,0,0,0,4.2651,4.2732,4.2793,4.2904,4.2934,4.2972,4.3019,4.3026,4.3089,4.3114,4.3158,4.3219,4.33,4.3352,4.343,4.3567,4.3582,4.3627,4.3641,4.3652,4.3665,4.3739,4.3759,4.3543,4.3543,4.3543,0,0,4.2702,4.2753,4.2803,4.2913,4.296,4.3044,4.2993,4.3083,4.3145,4.3128,4.3242,4.3277,4.3347,4.3475,4.3534,4.3508,4.3728,4.3665,4.3673,4.368,4.3751,4.3771,4.3789,4.355,4.3549,4.3548,0,0,4.2838,4.2885,4.2983,4.3031,4.3103,4.3127,4.315,4.322,4.3242,4.3357,4.3345,4.342,4.3558,4.3608,4.3651,4.3807,4.3793,4.3832,4.3905,4.3976,4.3993,4.4008,4.4062,4.4082,4.3845,4.3845,4.3845,0,4.2893,4.3018,4.3034,4.3126,4.3174,4.3162,4.3261,4.3307,4.3401,4.3434,4.3404,4.3577,4.3623,4.3763,4.38,4.3837,4.3863,4.3822,4.399,4.4005,4.4019,4.4071,4.4091,4.3849,4.3849,4.3848,4.3848,0,4.3081,4.3168,4.3238,4.3328,4.3385,4.348,4.351,4.3566,4.3568,4.3596,4.3713,4.3768,4.3856,4.389,4.3894,4.403,4.4011,4.3986,4.393,4.4044,4.4092,4.4112,4.3855,4.3853,4.3852,4.3851,0,0,4.3246,4.3344,4.3369,4.341,4.3489,4.3556,4.365,4.3736,4.3783,4.3848,4.3927,4.4045,4.4021,4.4071,4.408,4.4143,4.4261,4.411,4.4111,4.4134,4.4413,4.4431,4.4453,4.4254,4.4258,4.4261,4.4407,0,4.3388,4.3553,4.3571,4.3719,4.3799,4.3789,4.3871,4.3928,4.3957,4.4029,4.406,4.4143,4.4106,4.4136,4.4198,4.4234,4.4317,4.4224,4.4326,4.4329,4.4307,4.4479,4.4498,4.4633,4.4426,4.4429,4.4432,0,4.3575,4.3645,4.3801,4.3869,4.3903,4.3976,4.4056,4.4125,4.419,4.4206,4.4262,4.4263,4.4359,4.4302,4.4435,4.4371,4.4414,4.4438,4.4444,4.4452,4.4386,4.4491,4.4677,4.4697,4.4462,4.446,4.4458,0,4.3677,4.3811,4.3922,4.3957,4.4039,4.409,4.4127,4.4188,4.4238,4.4308,4.434,4.4421,4.4465,4.4527,4.455,4.4506,4.4682,4.4626,4.4697,4.4696,4.4732,4.4729,4.4926,4.4764,4.4764,4.4763,4.4763,0,4.3833,4.3928,4.3968,4.4036,4.4143,4.4162,4.4267,4.4301,4.4355,4.4429,4.4427,4.4496,4.4523,4.4597,4.4616,4.4722,4.4743,4.4758,4.4761,4.4757,4.4755,4.4784,4.4774,4.4769,4.4767,4.4766,4.4765,0,4.3964,4.3995,4.4114,4.4182,4.4202,4.4277,4.4335,4.44,4.4428,4.4521,4.4544,4.4588,4.4675,4.4704,4.481,4.4822,4.4946,4.4942,4.4923,4.4923,4.4992,4.4984,4.5213,4.5243,4.5062,4.5064,4.5066,0,4.406,4.4133,4.4209,4.4258,4.4296,4.4376,4.4427,4.445,4.4503,4.4582,4.4638,4.4724,4.4794,4.4933,4.4974,4.5054,4.5051,4.5126,4.5063,4.5056,4.505,4.5044,4.5051,4.5137,4.5139,4.514,4.5141,0,4.4227,4.4239,4.4312,4.4392,4.4453,4.4517,4.4579,4.4619,4.4651,4.4711,4.4799,4.4854,4.4961,4.5046,4.5128,4.5166,4.5159,4.5161,4.5181,4.5177,4.5162,4.5169,4.4953,4.5155,4.5154,4.5153,4.5152,4.5152,4.4342,4.4406,4.4469,4.4552,4.4601,4.4658,4.4722,4.4758,4.4833,4.4921,4.493,4.5025,4.5088,4.5198,4.5239,4.5314,4.5293,4.5323,4.533,4.5336,4.5341,4.5152,4.5329,4.5329,4.5329,4.5328,4.5328,0,4.4507,4.4547,4.4623,4.4709,4.4774,4.4763,4.483,4.4885,4.4969,4.5028,4.5097,4.5198,4.5281,4.5328,4.5411,4.5462,4.546,4.5482,4.5478,4.5486,4.5356,4.5329,4.5482,4.5482,4.5482,4.5482,4.5482,4.5482,4.46,4.4708,4.4727,4.4859,4.4898,4.4991,4.5031,4.5084,4.5131,4.5244,4.5313,4.5343,4.5398,4.5485,4.556,4.5572,4.5601,4.5625,4.5635,4.5511,4.5496,4.548,4.5455,4.5632,4.5632,4.5759,4.576,4.5761]},{"header":{"parameterUnit":"m.s-1","parameterCategory":1,"la1":30.2991,"la2":30.254,"lo1":-89.0895,"lo2":-89.0444,"dy":0.0017,"dx":0.0017,"nx":28,"ny":28,"refTime":"2025-06-05T21:00:00:Z","depth":0,"parameterNumber":3,"parameterNumberName":"V-component_of_WINDS"},"data":[0,0,0,0,0,0,0,0,0,0,0,0,0,0,0,0,0,0,0,0,0,0,0,0,0,0,0,0,0,0,0,0,0,0,0,0,0,0,0,0,0,0,0,0,0,0,0,0,0,0,0,0,0,0,0,0,0,0,1.6457,1.6457,0,1.6509,1.6509,1.651,1.6506,1.6505,1.6504,1.6504,1.6555,1.6557,1.6559,0,0,0,0,0,0,0,0,0,0,0,0,0,1.6351,1.6353,1.6457,1.6457,1.6458,1.6509,1.6509,1.651,1.6506,1.6505,1.6504,1.6503,1.6554,1.6557,1.6559,0,0,0,0,0,0,0,0,0,0,0,0,0,1.6399,1.6354,1.6456,1.6462,1.6463,1.6508,1.6509,1.651,1.6506,1.6505,1.6504,1.6503,1.6553,1.6556,1.6559,1.6602,0,0,1.6569,1.657,0,0,0,0,0,0,0,0,1.6397,1.6403,1.6461,1.6462,1.6463,1.65,1.6491,1.6541,1.6506,1.649,1.6504,1.6502,1.6537,1.6542,1.6554,1.6604,1.6607,1.6569,1.6571,1.6573,1.6573,0,0,0,0,0,0,0,1.6393,1.6401,1.6477,1.6461,1.6463,1.6461,1.6467,1.65,1.6519,1.6491,1.6491,1.6497,1.6538,1.6551,1.6555,1.6607,1.6569,1.6572,1.6574,1.6575,1.6695,1.6696,0,0,0,0,0,0,1.6389,1.6398,1.6475,1.6479,1.6426,1.6464,1.647,1.6489,1.6519,1.6522,1.6498,1.6497,1.6546,1.6551,1.6557,1.6608,1.6572,1.6575,1.6577,1.6693,1.6695,1.6696,0,0,0,0,0,0,1.6387,1.6396,1.6473,1.6439,1.6448,1.6467,1.6488,1.6491,1.6504,1.6524,1.6527,1.6508,1.6545,1.6552,1.6591,1.661,1.6577,1.658,1.6692,1.6694,1.6696,1.6712,0,0,0,0,0,0,1.6384,1.6395,1.6412,1.6439,1.645,1.6507,1.6489,1.6492,1.651,1.6508,1.6535,1.6538,1.6545,1.6586,1.6594,1.6614,1.6582,1.669,1.6693,1.6695,1.671,1.6714,1.6718,0,0,0,0,0,1.638,1.6414,1.6413,1.6422,1.6472,1.6508,1.6515,1.6523,1.6511,1.6528,1.6541,1.6537,1.6607,1.659,1.6599,1.662,1.6689,1.6692,1.6695,1.6708,1.6714,1.6718,0,0,0,0,0,0,1.6389,1.6418,1.6417,1.6461,1.6482,1.6508,1.6529,1.6528,1.6553,1.6551,1.6559,1.6565,1.6603,1.6615,1.6596,1.6662,1.6646,1.6651,1.6653,1.6659,1.6663,1.6659,1.6585,0,0,0,0,0,1.6396,1.6424,1.6448,1.6484,1.6495,1.651,1.6527,1.6531,1.6553,1.6562,1.6578,1.6599,1.6625,1.6642,1.6668,1.6711,1.6717,1.673,1.6734,1.6738,1.6742,1.6765,1.6771,1.6706,1.6706,1.6706,0,0,1.6411,1.643,1.6448,1.6487,1.6504,1.6532,1.6518,1.6548,1.6569,1.6566,1.6604,1.6616,1.664,1.6681,1.67,1.6692,1.6761,1.6741,1.6744,1.6746,1.6769,1.6775,1.678,1.6708,1.6708,1.6707,0,0,1.6453,1.647,1.6503,1.652,1.6546,1.6556,1.6564,1.6589,1.6598,1.6635,1.6634,1.6658,1.6704,1.6721,1.6735,1.6783,1.678,1.6791,1.6812,1.6835,1.684,1.6845,1.6861,1.6867,1.6795,1.6795,1.6795,0,1.6468,1.6511,1.6519,1.655,1.6567,1.6566,1.6599,1.6615,1.6647,1.6659,1.665,1.6707,1.6723,1.6768,1.678,1.6791,1.68,1.6788,1.6839,1.6843,1.6848,1.6864,1.687,1.6796,1.6796,1.6795,1.6795,0,1.6528,1.6558,1.6581,1.6613,1.6632,1.6664,1.6676,1.6695,1.6697,1.6708,1.6746,1.6765,1.6794,1.6805,1.6807,1.685,1.6844,1.6837,1.6821,1.6855,1.687,1.6876,1.6797,1.6797,1.6797,1.6796,0,0,1.6577,1.6614,1.6622,1.6636,1.6665,1.6688,1.6718,1.6748,1.6763,1.6786,1.6811,1.685,1.6843,1.686,1.6864,1.6884,1.692,1.6874,1.6875,1.6882,1.6968,1.6973,1.698,1.6918,1.6919,1.692,1.6965,0,1.6621,1.6677,1.6685,1.6734,1.6761,1.6761,1.6788,1.6807,1.6818,1.6842,1.6853,1.688,1.6869,1.6879,1.6899,1.6911,1.6937,1.6908,1.6942,1.6943,1.6936,1.6988,1.6994,1.7035,1.6971,1.6972,1.6973,0,1.6681,1.6705,1.6757,1.6782,1.6794,1.6818,1.6845,1.6868,1.689,1.6896,1.6915,1.6916,1.6948,1.693,1.6973,1.6953,1.6967,1.6975,1.6976,1.698,1.696,1.6993,1.7049,1.7055,1.6983,1.6982,1.6981,0,1.6711,1.6757,1.6794,1.6806,1.6836,1.6853,1.6866,1.6887,1.6904,1.6928,1.6938,1.6965,1.6979,1.6999,1.7008,1.6994,1.705,1.7033,1.7055,1.7055,1.7067,1.7066,1.7126,1.7076,1.7076,1.7076,1.7076,0,1.676,1.6791,1.6808,1.6831,1.6866,1.6875,1.6909,1.6921,1.694,1.6964,1.6965,1.6987,1.6997,1.7021,1.7028,1.7062,1.7068,1.7074,1.7075,1.7074,1.7073,1.7083,1.708,1.7077,1.7077,1.7077,1.7076,0,1.68,1.6812,1.6852,1.6877,1.6884,1.6909,1.693,1.6951,1.6961,1.6992,1.7,1.7015,1.7044,1.7054,1.7088,1.7093,1.7132,1.7131,1.7125,1.7125,1.7147,1.7144,1.7215,1.7225,1.7168,1.7169,1.7169,0,1.683,1.6854,1.6882,1.6899,1.6912,1.6939,1.6957,1.6966,1.6984,1.7011,1.7029,1.7057,1.708,1.7125,1.7139,1.7165,1.7165,1.7188,1.7168,1.7166,1.7165,1.7163,1.7165,1.7191,1.7192,1.7192,1.7193,0,1.6882,1.6887,1.6913,1.6941,1.6961,1.6983,1.7005,1.7018,1.703,1.705,1.708,1.7098,1.7133,1.716,1.7187,1.7199,1.7198,1.7199,1.7205,1.7204,1.7199,1.7202,1.7134,1.7197,1.7196,1.7196,1.7196,1.7196,1.6918,1.694,1.6963,1.6991,1.7008,1.7028,1.7049,1.7062,1.7087,1.7117,1.7121,1.7152,1.7173,1.7208,1.7222,1.7246,1.7239,1.7249,1.7251,1.7253,1.7255,1.7196,1.7251,1.7251,1.725,1.725,1.725,0,1.697,1.6985,1.7011,1.7041,1.7063,1.7061,1.7084,1.7102,1.713,1.715,1.7173,1.7206,1.7233,1.7249,1.7276,1.7292,1.7292,1.7299,1.7298,1.73,1.7259,1.7251,1.7298,1.7298,1.7298,1.7298,1.7298,1.7298,1.7,1.7036,1.7044,1.7088,1.7103,1.7134,1.7148,1.7166,1.7182,1.7219,1.7242,1.7252,1.727,1.7299,1.7323,1.7327,1.7336,1.7344,1.7347,1.7308,1.7303,1.7299,1.7291,1.7346,1.7346,1.7386,1.7386,1.7387]}]]